Rochester, MN
on Thursday, September 12, 2013

Thursday
Previous Day Next Day
Daily Summary
 ActualAverageRecord
Temperature
Mean Temperature °F 63°F  
Max Temperature 73°F 73°F 94°F (1948)
Min Temperature 51°F 52°F 30°F (1955)
Degree Days
Heating Degree Days 3 5  
Month to date heating degree days 16 38  
Since 1 July heating degree days 50 76  
Cooling Degree Days 0 2  
Month to date cooling degree days 78 32  
Year to date cooling degree days 634 557  
Growing Degree Days13 (Base °F )  
Moisture
Dew Point 48°F   
Average Humidity 62    
Maximum Humidity 83    
Minimum Humidity 40    
Precipitation
Precipitation 0.00 in 0.12 in 5.98 in (1978)
Month to date precipitation 0.01 1.46  
Year to date precipitation 34.71 25.65  
Snow
Snow 0.00 in 0.00 in 0.00 in (2012)
Month to date snowfall 0.0 0.0  
Since 1 July snowfall 0.0 0.0  
Snow Depth 0.00 in   
Wind
Wind Speed 12 mph   
Max Wind Speed 23 mph   
Max Gust Speed 31 mph   
Visibility 10 miles   
Events     

Key: T is trace of precipitation, MM is missing value
Source: NWS Daily Summary
Time(CDT)TemperatureDew PointHumidity Pressure Visibility Wind DirectionWind SpeedGust SpeedPrecipitationEvents Conditions
12:54 AM 62.1°F 53.1°F 72% 30.06 in 10.0 miles WNW 8.1 mph - N/A   Clear
1:54 AM 60.1°F 52.0°F 75% 30.07 in 10.0 miles WNW 8.1 mph - N/A   Clear
2:54 AM 59.0°F 50.0°F 72% 30.08 in 10.0 miles WNW 9.2 mph - N/A   Clear
3:54 AM 57.0°F 50.0°F 77% 30.09 in 10.0 miles WNW 10.4 mph - N/A   Clear
4:54 AM 55.0°F 48.9°F 80% 30.11 in 10.0 miles NW 9.2 mph - N/A   Clear
5:54 AM 54.0°F 48.9°F 83% 30.13 in 10.0 miles NNW 9.2 mph - N/A   Clear
6:54 AM 53.1°F 48.0°F 83% 30.14 in 10.0 miles NNW 9.2 mph - N/A   Clear
7:54 AM 57.0°F 50.0°F 77% 30.16 in 10.0 miles NNW 9.2 mph - N/A   Clear
8:54 AM 60.1°F 51.1°F 72% 30.18 in 10.0 miles NNW 11.5 mph - N/A   Clear
9:54 AM 64.0°F 50.0°F 60% 30.20 in 10.0 miles NNW 10.4 mph - N/A   Clear
10:54 AM 66.9°F 48.9°F 52% 30.20 in 10.0 miles North 16.1 mph - N/A   Clear
11:54 AM 69.1°F 48.9°F 49% 30.20 in 10.0 miles North 18.4 mph 23.0 mph N/A   Partly Cloudy
12:54 PM 69.1°F 48.9°F 49% 30.19 in 10.0 miles North 16.1 mph 24.2 mph N/A   Scattered Clouds
1:54 PM 71.1°F 48.9°F 45% 30.18 in 10.0 miles North 17.3 mph 23.0 mph N/A   Scattered Clouds
2:54 PM 71.1°F 46.9°F 42% 30.17 in 10.0 miles North 18.4 mph - N/A   Scattered Clouds
3:54 PM 72.0°F 46.0°F 40% 30.16 in 10.0 miles North 19.6 mph 24.2 mph N/A   Partly Cloudy
4:54 PM 70.0°F 46.9°F 44% 30.16 in 10.0 miles NNW 17.3 mph 23.0 mph N/A   Partly Cloudy
5:54 PM 69.1°F 45.0°F 42% 30.16 in 10.0 miles NNW 11.5 mph - N/A   Partly Cloudy
6:54 PM 66.9°F 44.1°F 44% 30.18 in 10.0 miles North 13.8 mph - N/A   Mostly Cloudy
7:54 PM 60.1°F 45.0°F 57% 30.19 in 10.0 miles North 6.9 mph - N/A   Clear
8:54 PM 57.9°F 45.0°F 62% 30.21 in 10.0 miles NNW 6.9 mph - N/A   Clear
9:54 PM 55.9°F 45.0°F 67% 30.22 in 10.0 miles NNW 5.8 mph - N/A   Clear
10:54 PM 54.0°F 45.0°F 72% 30.22 in 10.0 miles North 6.9 mph - N/A   Clear
11:54 PM 53.1°F 45.0°F 74% 30.23 in 10.0 miles NNW 5.8 mph - N/A   Clear
Astronomy
Sunrise:06:46 AM (CDT) Moon Rise:02:27 PM (CDT)9/12
Sunset:07:25 PM (CDT) Moon Set:No Moon Set/
Moon Phase
Sep. 12 Sep. 12 Sep. 19 Sep. 27 Oct. 05

Copyright © 2017 The Weather Underground, Inc.